Last 24 Hours

Pinyon

10 Minute Data | America/Los_Angeles
as of 5/9/26 8:50 AM PDT
Date & Time Temp (°F) Dew Pt (°F) RH (%) Wind Spd (mph) Wind Dir (°) Wind Gust (mph) Wind Gst Dir (°) Daily Max Temp (°F) Daily Min Temp (°F)
5/9/26 - 0850 78.2 22.4 12 6.4 SSE | 147 8.6 SSE | 151 79.8 70.5
5/9/26 - 0840 78.9 21.4 12 5.3 SE | 140 9.4 SE | 144 79.8 70.5
5/9/26 - 0830 79.2 17.3 10 2.5 SSE | 162 5.4 ESE | 118 79.8 70.5
5/9/26 - 0820 79.1 17.4 10 3.2 SSE | 161 6.3 SSE | 157 79.6 70.5
5/9/26 - 0810 79.0 12.4 8 2.6 ENE | 74 4.5 ENE | 73 79.2 70.5
5/9/26 - 0800 78.0 12.0 8 3.5 NNE | 25 6.2 NE | 36 78.6 70.5
5/9/26 - 0750 77.1 11.3 8 5.0 NNE | 17 7.5 NNE | 14 77.3 70.5
5/9/26 - 0740 76.1 10.6 8 4.6 NNE | 15 7.4 NNE | 13 76.7 70.5
5/9/26 - 0730 75.0 10.4 8 5.2 NNE | 17 6.6 NNE | 15 75.6 70.5
5/9/26 - 0720 74.2 9.6 8 5.1 NNE | 22 7.2 NNE | 28 74.6 70.5
5/9/26 - 0710 73.5 8.0 8 6.0 NNE | 16 7.9 NNE | 27 73.8 70.5
5/9/26 - 0700 72.8 6.5 7 5.9 NNE | 15 7.5 NNE | 16 73.2 70.5
5/9/26 - 0650 72.4 5.4 7 6.2 NNE | 14 7.2 NNE | 15 72.5 70.5
5/9/26 - 0640 72.3 4.8 7 6.6 NNE | 13 8.4 N | 6 72.4 70.5
5/9/26 - 0630 72.2 4.2 7 7.1 NNE | 14 8.3 NNE | 13 72.4 70.5
5/9/26 - 0620 71.7 3.7 7 7.2 N | 6 8.3 N | 1 72.4 70.5
5/9/26 - 0610 71.6 3.1 7 7.5 NNE | 14 10.0 N | 0 72.4 70.5
5/9/26 - 0600 72.0 3.1 7 7.4 NNE | 13 9.3 N | 11 72.4 70.5
5/9/26 - 0550 71.9 3.2 7 7.3 N | 11 9.1 N | 5 72.4 70.5
5/9/26 - 0540 72.2 2.9 6 7.3 N | 3 9.9 N | 350 72.4 70.5
5/9/26 - 0530 72.0 2.6 6 7.8 N | 3 9.6 N | 7 72.4 70.5
5/9/26 - 0520 71.6 2.2 6 7.5 N | 359 9.1 N | 349 72.1 70.5
5/9/26 - 0510 71.0 2.3 7 7.9 N | 356 9.5 N | 354 72.1 70.5
5/9/26 - 0500 71.4 2.7 7 7.7 N | 3 9.5 N | 0 72.1 70.5
5/9/26 - 0450 71.5 2.7 7 7.6 N | 2 9.2 N | 2 72.1 70.5
5/9/26 - 0440 71.1 2.6 7 8.3 N | 357 10.8 N | 349 72.1 70.5
5/9/26 - 0430 71.0 2.8 7 8.0 N | 359 10.5 NNE | 17 72.1 70.5
5/9/26 - 0420 71.4 3.1 7 8.4 N | 351 11.5 NNW | 348 72.1 70.6
5/9/26 - 0410 71.0 3.2 7 8.7 N | 351 11.5 N | 354 72.1 70.6
5/9/26 - 0400 71.1 3.4 7 8.6 N | 350 11.1 NNW | 342 72.1 70.6
5/9/26 - 0350 70.8 3.5 7 8.3 N | 356 11.5 NNW | 345 72.1 70.6
5/9/26 - 0340 71.2 3.6 7 8.2 N | 350 10.3 N | 349 72.1 70.7
5/9/26 - 0330 71.7 3.7 7 8.5 NNW | 345 11.7 NNW | 343 72.1 70.7
5/9/26 - 0320 71.6 3.8 7 9.4 NNW | 344 13.8 NNW | 348 72.1 70.7
5/9/26 - 0310 71.1 3.8 7 8.8 NNW | 347 12.5 N | 354 72.1 70.7
5/9/26 - 0300 71.2 4.2 7 8.2 NNW | 345 12.6 N | 350 72.1 70.7
5/9/26 - 0250 71.0 4.5 7 8.3 NNW | 346 11.6 N | 354 72.1 70.7
5/9/26 - 0240 71.6 4.6 7 8.7 NNW | 342 12.6 NNW | 338 72.1 70.8
5/9/26 - 0230 71.6 4.8 7 9.4 NNW | 339 14.5 NNW | 338 72.1 70.8
5/9/26 - 0220 71.7 5.1 7 10.1 NNW | 336 15.1 NNW | 347 72.1 70.8
5/9/26 - 0210 71.4 5.3 7 9.9 NNW | 335 15.5 NNW | 336 72.0 70.8
5/9/26 - 0200 71.6 5.2 7 10.8 NNW | 337 16.4 NNW | 334 71.9 70.8
5/9/26 - 0150 71.7 5.2 7 11.6 NNW | 336 17.2 NNW | 338 71.9 70.8
5/9/26 - 0140 71.7 5.7 7 12.2 NNW | 333 17.0 NW | 326 71.9 70.8
5/9/26 - 0130 71.4 6.3 8 11.4 NNW | 332 18.7 NNW | 335 71.8 70.8
5/9/26 - 0120 71.4 6.5 8 12.1 NNW | 331 19.0 NNW | 330 71.8 70.8
5/9/26 - 0110 71.0 7.7 8 11.3 NNW | 332 15.4 N | 354 71.2 70.8
5/9/26 - 0100 71.0 8.1 9 12.8 NNW | 330 19.1 NNW | 328 82.7 67.1
5/9/26 - 0050 70.9 8.8 9 12.1 NNW | 331 19.1 NNW | 339 82.7 67.1
5/9/26 - 0040 71.3 9.2 9 13.7 NNW | 330 20.5 NNW | 338 82.7 67.1
5/9/26 - 0030 71.1 10.0 9 13.6 NNW | 330 22.4 NW | 319 82.7 67.1
5/9/26 - 0020 71.4 11.0 10 13.4 NNW | 332 19.3 NW | 325 82.7 67.1
5/9/26 - 0010 71.2 13.0 11 14.4 NNW | 331 21.6 NW | 319 82.7 67.1
5/9/26 - 0000 71.2 14.0 11 13.3 NNW | 329 20.7 NNW | 334 82.7 67.1
5/8/26 - 2350 71.1 15.9 12 13.5 NNW | 329 19.9 NNW | 333 82.7 67.1
5/8/26 - 2340 71.1 16.9 12 13.5 NNW | 331 22.1 NNW | 328 82.7 67.1
5/8/26 - 2330 71.0 18.3 13 14.2 NNW | 331 22.2 NNW | 329 82.7 67.1
5/8/26 - 2320 70.7 21.1 15 14.6 NNW | 333 21.6 NNW | 347 82.7 67.1
5/8/26 - 2310 70.8 21.7 16 15.0 NNW | 329 21.3 NNW | 333 82.7 67.1
5/8/26 - 2300 70.8 23.8 17 15.7 NNW | 330 23.2 NNW | 345 82.7 67.1
5/8/26 - 2250 70.8 25.4 18 17.1 NNW | 331 24.9 NNW | 338 82.7 67.1
5/8/26 - 2240 70.3 28.7 21 16.4 NNW | 331 25.0 NNW | 332 82.7 67.1
5/8/26 - 2230 70.4 30.0 22 17.7 NNW | 332 28.4 NNW | 340 82.7 67.1
5/8/26 - 2220 70.1 31.5 24 17.4 NNW | 331 26.1 NW | 323 82.7 67.1
5/8/26 - 2210 70.0 33.5 26 17.2 NNW | 331 26.6 NW | 316 82.7 67.1
5/8/26 - 2200 69.6 36.3 29 18.2 NNW | 330 26.8 NNW | 334 82.7 67.1
5/8/26 - 2150 69.5 37.6 31 17.8 NNW | 333 28.4 NNW | 333 82.7 67.1
5/8/26 - 2140 69.5 38.2 32 18.0 NNW | 332 28.6 NW | 324 82.7 67.1
5/8/26 - 2130 69.3 40.2 35 19.0 NNW | 331 30.8 NNW | 328 82.7 67.1
5/8/26 - 2120 69.1 40.7 36 19.0 NNW | 330 27.6 N | 354 82.7 67.1
5/8/26 - 2110 68.7 44.2 41 19.5 NNW | 330 29.0 N | 353 82.7 67.1
5/8/26 - 2100 68.8 44.3 41 20.8 NNW | 330 30.8 NW | 322 82.7 67.1
5/8/26 - 2050 68.4 46.8 46 19.9 NNW | 330 29.1 NNW | 336 82.7 67.1
5/8/26 - 2040 68.4 47.3 47 19.8 NNW | 328 28.8 NW | 305 82.7 67.1
5/8/26 - 2030 68.2 48.3 49 19.6 NNW | 327 28.9 NNW | 333 82.7 67.1
5/8/26 - 2020 68.3 48.6 49 18.6 NNW | 331 29.3 NNW | 332 82.7 67.1
5/8/26 - 2010 68.7 48.8 49 19.3 NNW | 328 28.5 NNW | 336 82.7 67.1
5/8/26 - 2000 69.3 47.6 46 19.6 NNW | 332 28.9 NNW | 328 82.7 67.1
5/8/26 - 1950 69.8 45.7 42 19.5 NNW | 329 30.6 NNW | 328 82.7 67.1
5/8/26 - 1940 70.3 43.3 38 18.9 NNW | 329 30.0 NW | 321 82.7 67.1
5/8/26 - 1930 70.9 42.5 36 17.7 NNW | 328 27.6 NW | 322 82.7 67.1
5/8/26 - 1920 71.8 42.5 35 17.3 NNW | 330 25.8 NNW | 334 82.7 67.1
5/8/26 - 1910 72.6 42.5 34 19.2 NNW | 330 28.5 NNW | 341 82.7 67.1
5/8/26 - 1900 73.4 42.6 33 18.7 NNW | 332 26.4 NNW | 336 82.7 67.1
5/8/26 - 1850 74.2 42.8 32 18.1 NNW | 330 26.2 NNW | 330 82.7 67.1
5/8/26 - 1840 74.7 42.5 31 19.0 NNW | 335 27.9 NNW | 342 82.7 67.1
5/8/26 - 1830 75.2 42.3 31 19.7 NNW | 332 27.7 N | 350 82.7 67.1
5/8/26 - 1820 76.0 41.9 29 18.4 NNW | 333 25.6 N | 349 82.7 67.1
5/8/26 - 1810 76.5 42.0 29 18.6 NNW | 332 26.6 NNW | 337 82.7 67.1
5/8/26 - 1800 76.8 42.0 29 18.9 NNW | 330 28.2 NNW | 331 82.7 67.1
5/8/26 - 1750 77.4 42.0 28 18.5 NNW | 332 25.9 NW | 325 82.7 67.1
5/8/26 - 1740 77.7 41.3 27 18.9 NNW | 338 27.4 NNW | 336 82.7 67.1
5/8/26 - 1730 78.1 40.1 26 19.5 NNW | 340 28.0 NNW | 340 82.7 67.1
5/8/26 - 1720 78.5 39.5 25 19.8 NNW | 340 27.2 NNW | 345 82.7 67.1
5/8/26 - 1710 79.0 39.5 24 18.6 NNW | 335 30.3 NNW | 330 82.7 67.1
5/8/26 - 1700 79.3 39.3 24 18.6 NNW | 335 27.1 N | 353 82.7 67.1
5/8/26 - 1650 79.6 39.0 23 17.2 NNW | 339 25.7 N | 0 82.7 67.1
5/8/26 - 1640 79.5 38.6 23 17.9 NNW | 339 26.7 NNW | 344 82.7 67.1
5/8/26 - 1630 80.0 37.0 21 17.2 NNW | 340 26.3 NNW | 337 82.7 67.1
5/8/26 - 1620 80.5 38.2 22 17.3 NNW | 341 25.7 NNW | 346 82.7 67.1
5/8/26 - 1610 80.3 37.8 22 17.8 NNW | 334 25.6 NNW | 334 82.7 67.1
5/8/26 - 1600 80.1 36.5 21 17.9 NNW | 333 26.4 NNW | 343 82.7 67.1
5/8/26 - 1550 80.7 36.4 20 19.3 NNW | 331 29.3 NNW | 341 82.7 67.1
5/8/26 - 1540 80.8 32.7 18 15.1 NNW | 347 24.9 N | 353 82.7 67.1
5/8/26 - 1530 81.5 32.4 17 15.2 NNW | 330 25.6 NNW | 348 82.7 67.1
5/8/26 - 1520 81.4 31.6 16 14.2 NNW | 345 25.5 NNW | 346 82.7 67.1
5/8/26 - 1510 81.2 29.4 15 15.6 N | 355 22.8 N | 353 82.7 67.1
5/8/26 - 1500 81.8 30.4 15 13.1 NNW | 336 24.3 NNW | 346 82.7 67.1
5/8/26 - 1450 81.3 27.6 14 14.6 NNW | 338 22.6 NW | 319 82.7 67.1
5/8/26 - 1440 81.5 28.8 15 14.2 NNW | 346 24.6 N | 354 82.7 67.1
5/8/26 - 1430 80.9 29.6 15 14.7 N | 350 23.4 NW | 325 82.7 67.1
5/8/26 - 1420 80.8 29.2 15 14.5 NNW | 341 23.5 NNW | 335 82.7 67.1
5/8/26 - 1410 81.7 30.4 15 14.4 N | 350 23.2 NNW | 345 82.7 67.1
5/8/26 - 1400 81.2 32.3 17 14.5 NNW | 341 27.1 NNW | 328 82.6 67.1
5/8/26 - 1350 81.1 32.3 17 14.2 NNW | 334 22.6 NNW | 334 82.3 67.1
5/8/26 - 1340 80.8 32.9 18 15.7 N | 349 25.2 N | 352 81.8 67.1
5/8/26 - 1330 80.8 33.3 18 14.5 NNW | 345 24.2 NNW | 341 81.8 67.1
5/8/26 - 1320 81.2 30.5 16 14.2 N | 358 28.9 NNW | 336 81.8 67.1
5/8/26 - 1310 80.9 30.0 16 14.3 NNW | 338 23.3 NNW | 336 81.7 67.1
5/8/26 - 1300 81.0 30.6 16 15.7 NNW | 334 24.1 NNW | 337 81.7 67.1
5/8/26 - 1250 80.4 27.8 15 13.7 N | 349 22.8 N | 349 81.6 67.1
5/8/26 - 1240 80.6 29.6 16 17.5 NNW | 335 30.7 NW | 318 81.6 67.1
5/8/26 - 1230 80.7 28.6 15 15.1 NNW | 333 25.1 NNW | 327 81.6 67.1
5/8/26 - 1220 80.5 27.9 15 16.1 NNW | 332 25.3 NNW | 329 81.6 67.1
5/8/26 - 1210 80.7 27.6 14 15.8 NNW | 331 26.7 NNW | 328 81.6 67.1
5/8/26 - 1200 80.3 26.7 14 15.8 NNW | 330 23.2 NW | 304 81.1 67.1
5/8/26 - 1150 80.3 25.5 13 16.7 NNW | 336 26.2 NNW | 340 81.1 67.1
5/8/26 - 1140 80.1 24.9 13 16.7 NNW | 337 27.3 NNW | 337 81.0 67.1
5/8/26 - 1130 80.0 25.8 14 16.0 NNW | 328 24.6 NNW | 334 81.0 67.1
5/8/26 - 1120 80.1 26.3 14 15.8 NW | 325 25.1 NW | 324 81.0 67.1
5/8/26 - 1110 79.6 27.6 15 17.6 NW | 326 28.1 NNW | 328 81.0 67.1
5/8/26 - 1100 80.0 27.6 15 13.8 NNW | 335 24.6 NNW | 340 81.0 67.1
5/8/26 - 1050 79.4 27.9 15 15.0 N | 352 22.0 NNW | 333 80.2 67.1
5/8/26 - 1040 79.1 27.3 15 13.4 NNW | 338 21.9 NW | 325 79.8 67.1
5/8/26 - 1030 78.9 27.8 15 14.6 NNW | 343 22.1 NNW | 335 79.4 67.1
5/8/26 - 1020 78.7 27.6 15 15.5 NNW | 333 24.4 NW | 311 79.4 67.1
5/8/26 - 1010 78.1 27.7 16 16.5 NNW | 337 23.0 NNW | 339 78.8 67.1
5/8/26 - 1000 77.9 27.8 16 16.5 NNW | 338 24.6 N | 354 78.8 67.1
5/8/26 - 0950 77.4 27.8 16 16.8 NNW | 336 23.9 NNW | 336 78.8 67.1
5/8/26 - 0940 77.5 27.9 16 15.9 NNW | 333 23.2 NNW | 335 78.8 67.1
5/8/26 - 0930 77.8 27.2 15 15.0 NNW | 343 21.8 NNW | 333 78.8 67.1
5/8/26 - 0920 77.9 27.6 16 11.7 NNW | 344 18.0 NW | 325 78.8 67.1
5/8/26 - 0910 77.4 27.1 16 12.4 NNW | 347 20.5 N | 3 77.8 67.1
5/8/26 - 0900 76.8 26.6 16 10.2 N | 354 18.0 NW | 322 77.3 67.1
5/8/26 - 0850 76.1 26.7 16 10.0 N | 350 17.0 NNW | 347 76.6 67.1
Max 81.8 48.8 49 20.8 - 30.8 - 82.7 70.8
Avg 74.9 23.7 17 13.5 - 20.5 - - -
Min 68.2 2.2 6 2.5 - 4.5 - 71.2 67.1